Location: Ladirat
(44.8151°N, 1.9702°E)
Time: 11:00:22
(UTC+00:00)

COSMOS 2406 - Pass Details

Date: 15 May 2026
Orbit: 846 x 858 km, 71.0° (Epoch: 8 June)

Event Time Altitude Azimuth Distance (km) Brightness Sun altitude
Rises 21:20:47 0° 224° (SW) 3,421 6.3 -17.8°
Reaches altitude 10° 21:23:21 10° 231° (SW) 2,489 5.6 -18.1°
Maximum altitude 21:28:48 44° 303° (WNW) 1,170 4.4 -18.7°
Drops below altitude 10° 21:34:17 10° 15° (NNE) 2,499 6.2 -19.2°
Sets 21:36:52 0° 22° (NNE) 3,438 6.9 -19.5°
